カタログに戻る

STARLINK-31386

運用中通信VLEO
NORAD 59298·PAYLOAD·🇺🇸 United States

打ち上げ Mar 24, 2024 から Cape Canaveral Space Force Station

Loading…

次のパス (今後24時間)

TLE

最新Source: CelesTrak SupGP

元期: Sep 15, 2026, 02:42 UTC

1 59298C 24056C   26258.11298611 -.00037009  00000+0 -13407-2 0  2587
2 59298  42.9993 240.9265 0001369 268.4940 119.4809 15.27591477    12

AllMySatでSTARLINK-31386をリアルタイム追跡

Download on the App Store